Location: LDNL
(36.4545°S, 141.6685°E)
Time: 04:46:01
(UTC+11:00)

A-11 Canister half - Pass Details

Date: 18 August 2022
Orbit: 1524 x 1684 km, 47.3° (Epoch: 05 October)

Event Time Altitude Azimuth Distance (km) Brightness Sun altitude
Rises 14:56:15 0° 324° (NW) 4,756 12.7 30.6°
Reaches altitude 10° 14:59:25 10° 328° (NNW) 3,756 12.6 30.2°
Maximum altitude 15:08:35 57° 43° (NE) 1,780 9.8 29.0°
Drops below altitude 10° 15:17:38 10° 118° (ESE) 3,709 10.6 27.7°
Sets 15:20:44 0° 122° (ESE) 4,694 11.0 27.2°
